When you browse on this site, cookies collect data to enhance your experience and personalize the content and advertising you see.
Visit our Privacy Policy to learn more. By continuing to use the site, you agree to this use of cookies and data.
  • In Hungary
  • List of Countries
  • For 7 days
  • Water Temperature
  • Weather Map
  • News
  • Weather Widgets
  • user-avatar
    Login

    Hourly Weather Marinka

    Today, 15 November, Friday

    Time Temperature Precipitation Wind Pressure Humidity
    00:00 +3°C° 0 mm 9 mps 754 mmHg 60%
    01:00 +3°C° 0 mm 9 mps 754 mmHg 61%
    02:00 +3°C° 0 mm 9 mps 755 mmHg 61%
    03:00 +3°C° 0 mm 9 mps 755 mmHg 62%
    04:00 +3°C° 0 mm 9 mps 754 mmHg 64%
    05:00 +3°C° 0 mm 9 mps 754 mmHg 65%
    06:00 +3°C° 0 mm 9 mps 754 mmHg 66%
    07:00 +3°C° 0 mm 9 mps 754 mmHg 66%
    08:00 +3°C° 0 mm 9 mps 754 mmHg 66%
    09:00 +3°C° 0 mm 10 mps 755 mmHg 65%
    10:00 +5°C° 0 mm 10 mps 755 mmHg 59%
    11:00 +7°C° 0 mm 9 mps 755 mmHg 53%
    12:00 +8°C° 0 mm 9 mps 755 mmHg 47%
    13:00 +8°C° 0 mm 9 mps 755 mmHg 46%
    14:00 +10°C° 0 mm 9 mps 755 mmHg 45%
    15:00 +10°C° 0 mm 8 mps 755 mmHg 44%
    16:00 +9°C° 0 mm 8 mps 755 mmHg 48%
    17:00 +7°C° 0 mm 8 mps 755 mmHg 51%
    18:00 +6°C° 0 mm 7 mps 755 mmHg 55%
    19:00 +6°C° 0 mm 7 mps 755 mmHg 57%
    20:00 +6°C° 0 mm 7 mps 756 mmHg 60%
    21:00 +5°C° 0 mm 7 mps 756 mmHg 62%
    22:00 +5°C° 0 mm 7 mps 756 mmHg 64%
    23:00 +5°C° 0 mm 7 mps 756 mmHg 67%

    Tomorrow, 16 November, Saturday

    Time Temperature Precipitation Wind Pressure Humidity
    00:00 +4°C° 0 mm 7 mps 755 mmHg 69%
    01:00 +4°C° 0 mm 6 mps 756 mmHg 69%
    02:00 +3°C° 0 mm 6 mps 756 mmHg 70%
    03:00 +3°C° 0 mm 6 mps 756 mmHg 70%
    04:00 +3°C° 0 mm 6 mps 756 mmHg 73%
    05:00 +2°C° 0 mm 6 mps 756 mmHg 75%
    06:00 +2°C° 0 mm 6 mps 756 mmHg 77%
    07:00 +2°C° 0 mm 6 mps 756 mmHg 77%
    08:00 +2°C° 0 mm 6 mps 756 mmHg 77%
    09:00 +3°C° 0 mm 6 mps 757 mmHg 76%
    10:00 +4°C° 0 mm 6 mps 757 mmHg 71%
    11:00 +5°C° 0 mm 6 mps 757 mmHg 65%
    12:00 +7°C° 0 mm 6 mps 756 mmHg 60%
    13:00 +8°C° 0 mm 6 mps 756 mmHg 56%
    14:00 +9°C° 0 mm 6 mps 756 mmHg 53%
    15:00 +10°C° 0 mm 5 mps 756 mmHg 50%
    16:00 +9°C° 0 mm 5 mps 756 mmHg 54%
    17:00 +8°C° 0 mm 4 mps 756 mmHg 57%
    18:00 +7°C° 0 mm 4 mps 756 mmHg 61%
    19:00 +7°C° 0 mm 4 mps 756 mmHg 63%
    20:00 +6°C° 0 mm 4 mps 757 mmHg 65%
    21:00 +6°C° 0 mm 4 mps 757 mmHg 67%
    22:00 +5°C° 0 mm 5 mps 757 mmHg 70%
    23:00 +5°C° 0 mm 5 mps 757 mmHg 73%

    Day after tomorrow, 17 November, Sunday

    Time Temperature Precipitation Wind Pressure Humidity
    00:00 +5°C° 0 mm 5 mps 757 mmHg 76%
    01:00 +3°C° 0 mm 5 mps 757 mmHg 79%
    02:00 +4°C° 0 mm 4 mps 757 mmHg 82%
    03:00 +3°C° 0 mm 4 mps 757 mmHg 85%
    04:00 +3°C° 0 mm 4 mps 757 mmHg 87%
    05:00 +3°C° 0 mm 4 mps 757 mmHg 89%
    06:00 +3°C° 0 mm 4 mps 757 mmHg 91%
    07:00 +2°C° 0 mm 5 mps 757 mmHg 90%
    08:00 +2°C° 0 mm 5 mps 757 mmHg 88%
    09:00 +3°C° 0 mm 6 mps 757 mmHg 86%
    10:00 +4°C° 0 mm 6 mps 757 mmHg 78%
    11:00 +5°C° 0 mm 6 mps 757 mmHg 71%
    12:00 +8°C° 0 mm 6 mps 757 mmHg 63%
    13:00 +8°C° 0 mm 6 mps 757 mmHg 60%
    14:00 +9°C° 0 mm 6 mps 757 mmHg 57%
    15:00 +10°C° 0 mm 6 mps 757 mmHg 53%
    16:00 +9°C° 0 mm 5 mps 756 mmHg 57%
    17:00 +8°C° 0 mm 5 mps 756 mmHg 60%
    18:00 +7°C° 0 mm 5 mps 756 mmHg 64%
    19:00 +7°C° 0 mm 5 mps 756 mmHg 65%
    20:00 +7°C° 0 mm 5 mps 756 mmHg 67%
    21:00 +7°C° 0 mm 6 mps 756 mmHg 68%
    22:00 +5°C° 0 mm 6 mps 756 mmHg 69%
    23:00 +6°C° 0 mm 5 mps 756 mmHg 70%

    18 November, Monday

    Time Temperature Precipitation Wind Pressure Humidity
    00:00 +5°C° 0 mm 5 mps 756 mmHg 72%
    01:00 +5°C° 0 mm 5 mps 756 mmHg 74%
    02:00 +3°C° 0 mm 5 mps 756 mmHg 76%
    03:00 +3°C° 0 mm 5 mps 755 mmHg 78%
    04:00 +3°C° 0 mm 5 mps 755 mmHg 81%
    05:00 +2°C° 0 mm 5 mps 755 mmHg 83%
    06:00 +2°C° 0 mm 5 mps 755 mmHg 86%
    07:00 +2°C° 0 mm 5 mps 755 mmHg 87%
    08:00 +2°C° 0 mm 5 mps 755 mmHg 87%
    09:00 +2°C° 0 mm 5 mps 755 mmHg 87%
    10:00 +3°C° 0 mm 5 mps 755 mmHg 81%
    11:00 +6°C° 0 mm 5 mps 755 mmHg 75%
    12:00 +7°C° 0 mm 5 mps 755 mmHg 68%
    13:00 +7°C° 0 mm 5 mps 755 mmHg 65%
    14:00 +8°C° 0 mm 4 mps 755 mmHg 61%
    15:00 +10°C° 0 mm 4 mps 754 mmHg 58%
    16:00 +8°C° 0 mm 4 mps 754 mmHg 63%
    17:00 +7°C° 0 mm 4 mps 754 mmHg 67%
    18:00 +7°C° 0 mm 3 mps 754 mmHg 72%
    19:00 +5°C° 0 mm 3 mps 754 mmHg 74%
    20:00 +5°C° 0 mm 3 mps 754 mmHg 77%
    21:00 +5°C° 0 mm 3 mps 754 mmHg 80%
    22:00 +4°C° 0 mm 3 mps 754 mmHg 82%
    23:00 +4°C° 0 mm 3 mps 754 mmHg 85%

    19 November, Tuesday

    Time Temperature Precipitation Wind Pressure Humidity
    00:00 +4°C° 0 mm 3 mps 754 mmHg 87%
    01:00 +3°C° 0 mm 3 mps 754 mmHg 88%
    02:00 +4°C° 0 mm 2 mps 754 mmHg 89%
    03:00 +4°C° 0 mm 2 mps 754 mmHg 89%
    04:00 +3°C° 0 mm 2 mps 754 mmHg 90%
    05:00 +3°C° 0 mm 2 mps 754 mmHg 90%
    06:00 +3°C° 0 mm 2 mps 754 mmHg 91%
    07:00 +3°C° 0 mm 2 mps 754 mmHg 90%
    08:00 +3°C° 0 mm 2 mps 754 mmHg 90%
    09:00 +4°C° 0 mm 2 mps 754 mmHg 89%
    10:00 +5°C° 0 mm 2 mps 754 mmHg 83%
    11:00 +7°C° 0 mm 2 mps 754 mmHg 76%
    12:00 +8°C° 0 mm 2 mps 755 mmHg 70%
    13:00 +9°C° 0 mm 2 mps 754 mmHg 67%
    14:00 +9°C° 0 mm 2 mps 754 mmHg 64%
    15:00 +11°C° 0 mm 1 mps 754 mmHg 61%
    16:00 +10°C° 0 mm 1 mps 754 mmHg 66%
    17:00 +9°C° 0 mm 1 mps 754 mmHg 71%
    18:00 +8°C° 0 mm 1 mps 754 mmHg 76%
    19:00 +7°C° 0 mm 1 mps 754 mmHg 79%
    20:00 +7°C° 0 mm 1 mps 754 mmHg 82%
    21:00 +6°C° 0 mm 1 mps 754 mmHg 85%
    22:00 +6°C° 0 mm 1 mps 754 mmHg 86%
    23:00 +6°C° 0 mm 1 mps 754 mmHg 88%

    20 November, Wednesday

    Time Temperature Precipitation Wind Pressure Humidity
    00:00 +4°C° 0 mm 2 mps 754 mmHg 89%
    01:00 +4°C° 0 mm 2 mps 754 mmHg 90%
    02:00 +4°C° 0 mm 2 mps 754 mmHg 91%
    03:00 +4°C° 0 mm 2 mps 754 mmHg 92%
    04:00 +3°C° 0 mm 2 mps 754 mmHg 92%
    05:00 +3°C° 0 mm 2 mps 754 mmHg 93%
    06:00 +2°C° 0 mm 3 mps 753 mmHg 93%
    07:00 +2°C° 0 mm 3 mps 754 mmHg 93%
    08:00 +2°C° 0 mm 3 mps 754 mmHg 92%
    09:00 +3°C° 0 mm 4 mps 754 mmHg 92%
    10:00 +3°C° 0 mm 4 mps 754 mmHg 87%
    11:00 +3°C° 0 mm 5 mps 755 mmHg 83%
    12:00 +5°C° 0 mm 5 mps 755 mmHg 79%
    13:00 +5°C° 0 mm 5 mps 755 mmHg 73%
    14:00 +6°C° 0 mm 5 mps 755 mmHg 67%
    15:00 +7°C° 0 mm 5 mps 755 mmHg 60%
    16:00 +5°C° 0 mm 6 mps 755 mmHg 64%
    17:00 +4°C° 0 mm 6 mps 755 mmHg 68%
    18:00 +3°C° 0 mm 6 mps 755 mmHg 72%
    19:00 +2°C° 0 mm 6 mps 756 mmHg 73%
    20:00 0°C° 0 mm 7 mps 756 mmHg 74%
    21:00 0°C° 0 mm 7 mps 756 mmHg 76%
    22:00 -1°C° 0 mm 7 mps 756 mmHg 73%
    23:00 -2°C° 0 mm 7 mps 757 mmHg 70%
    Show more